Time,TemperatureF,DewpointF,PressureIn,WindDirection,WindDirectionDegrees,WindSpeedMPH,WindSpeedGustMPH,Humidity,HourlyPrecipIn,Conditions,Clouds,dailyrainin,SoftwareType,DateUTC
2013-02-13 00:00:00,39.2,32.3,29.90,NW,319,0.0,0.0,76,0.00,,,0.00,Wunderground v.1.15,2013-02-13 05:00:00,
2013-02-13 00:02:00,39.2,32.6,29.90,NW,319,0.0,0.0,77,0.00,,,0.00,Wunderground v.1.15,2013-02-13 05:02:00,
2013-02-13 00:04:00,39.2,32.9,29.90,NW,319,0.0,0.0,78,0.00,,,0.00,Wunderground v.1.15,2013-02-13 05:04:00,
2013-02-13 00:10:00,39.1,32.8,29.89,NW,319,0.0,1.0,78,0.00,,,0.00,Wunderground v.1.15,2013-02-13 05:10:00,
2013-02-13 00:12:00,39.0,32.7,29.89,NW,319,0.0,1.0,78,0.00,,,0.00,Wunderground v.1.15,2013-02-13 05:12:00,
2013-02-13 00:18:00,39.1,32.5,29.89,NW,319,1.0,3.0,77,0.00,,,0.00,Wunderground v.1.15,2013-02-13 05:18:00,
2013-02-13 00:24:00,39.2,32.6,29.89,NW,319,1.0,1.0,77,0.00,,,0.00,Wunderground v.1.15,2013-02-13 05:24:00,
2013-02-13 00:30:00,39.3,32.7,29.89,NW,319,0.0,0.0,77,0.00,,,0.00,Wunderground v.1.15,2013-02-13 05:30:00,
2013-02-13 00:36:00,39.2,32.6,29.89,NW,319,0.0,0.0,77,0.00,,,0.00,Wunderground v.1.15,2013-02-13 05:36:00,
2013-02-13 00:42:00,39.2,32.6,29.90,NW,319,0.0,1.0,77,0.00,,,0.00,Wunderground v.1.15,2013-02-13 05:42:00,
2013-02-13 00:48:00,39.1,32.5,29.89,North,10,1.0,2.0,77,0.00,,,0.00,Wunderground v.1.15,2013-02-13 05:48:00,
2013-02-13 00:54:00,39.2,32.6,29.89,NNE,28,2.0,4.0,77,0.00,,,0.00,Wunderground v.1.15,2013-02-13 05:54:00,
2013-02-13 01:00:00,39.3,32.7,29.89,NNE,28,3.0,3.0,77,0.00,,,0.00,Wunderground v.1.15,2013-02-13 06:00:00,
2013-02-13 01:06:00,39.2,32.6,29.89,NNE,28,2.0,3.0,77,0.00,,,0.00,Wunderground v.1.15,2013-02-13 06:06:00,
2013-02-13 01:12:00,39.1,32.5,29.89,NNE,24,2.0,3.0,77,0.00,,,0.00,Wunderground v.1.15,2013-02-13 06:12:00,
2013-02-13 01:18:00,39.0,32.4,29.89,NNE,24,3.0,3.0,77,0.00,,,0.00,Wunderground v.1.15,2013-02-13 06:18:00,
2013-02-13 01:24:00,38.9,32.3,29.89,NNE,24,1.0,2.0,77,0.00,,,0.00,Wunderground v.1.15,2013-02-13 06:24:00,
2013-02-13 01:30:00,38.9,32.3,29.89,NNE,24,1.0,1.0,77,0.00,,,0.00,Wunderground v.1.15,2013-02-13 06:30:00,
2013-02-13 01:36:00,38.8,32.2,29.89,NNE,24,0.0,1.0,77,0.00,,,0.00,Wunderground v.1.15,2013-02-13 06:36:00,
2013-02-13 01:42:00,38.7,32.1,29.89,NNE,24,0.0,0.0,77,0.00,,,0.00,Wunderground v.1.15,2013-02-13 06:42:00,
2013-02-13 01:50:00,38.6,32.3,29.89,NNE,24,0.0,3.0,78,0.00,,,0.00,Wunderground v.1.15,2013-02-13 06:50:00,
2013-02-13 01:56:00,38.6,32.0,29.89,NNE,24,1.0,3.0,77,0.00,,,0.00,Wunderground v.1.15,2013-02-13 06:56:00,
2013-02-13 02:02:00,38.6,32.0,29.89,NNE,24,0.0,0.0,77,0.00,,,0.00,Wunderground v.1.15,2013-02-13 07:02:00,
2013-02-13 02:08:00,38.5,31.9,29.88,NNE,24,0.0,0.0,77,0.00,,,0.00,Wunderground v.1.15,2013-02-13 07:08:00,
2013-02-13 02:14:00,38.5,32.2,29.88,NNE,24,0.0,0.0,78,0.00,,,0.00,Wunderground v.1.15,2013-02-13 07:14:00,
2013-02-13 02:20:00,38.4,32.1,29.88,NNE,24,0.0,0.0,78,0.00,,,0.00,Wunderground v.1.15,2013-02-13 07:20:00,
2013-02-13 02:26:00,38.3,32.0,29.88,NNE,24,0.0,0.0,78,0.00,,,0.00,Wunderground v.1.15,2013-02-13 07:26:00,
2013-02-13 02:32:00,38.3,32.0,29.87,NNE,24,2.0,2.0,78,0.00,,,0.00,Wunderground v.1.15,2013-02-13 07:32:00,
2013-02-13 02:38:00,38.3,32.0,29.86,NNE,20,3.0,3.0,78,0.00,,,0.00,Wunderground v.1.15,2013-02-13 07:38:00,
2013-02-13 02:44:00,38.3,32.0,29.86,NNE,16,3.0,4.0,78,0.00,,,0.00,Wunderground v.1.15,2013-02-13 07:44:00,
2013-02-13 02:50:00,38.3,32.0,29.86,NNE,15,3.0,3.0,78,0.00,,,0.00,Wunderground v.1.15,2013-02-13 07:50:00,
2013-02-13 02:56:00,38.3,32.0,29.86,NNE,15,3.0,5.0,78,0.00,,,0.00,Wunderground v.1.15,2013-02-13 07:56:00,
2013-02-13 03:02:00,38.3,32.0,29.86,NNE,15,1.0,3.0,78,0.00,,,0.00,Wunderground v.1.15,2013-02-13 08:02:00,
2013-02-13 03:08:00,38.2,31.9,29.85,North,350,1.0,6.0,78,0.00,,,0.00,Wunderground v.1.15,2013-02-13 08:08:00,
2013-02-13 03:14:00,38.0,31.7,29.85,North,355,3.0,5.0,78,0.00,,,0.00,Wunderground v.1.15,2013-02-13 08:14:00,
2013-02-13 03:20:00,37.9,32.0,29.84,North,360,5.0,5.0,79,0.00,,,0.00,Wunderground v.1.15,2013-02-13 08:20:00,
2013-02-13 03:26:00,37.8,32.2,29.84,North,360,5.0,5.0,80,0.00,,,0.00,Wunderground v.1.15,2013-02-13 08:26:00,
2013-02-13 16:38:00,41.9,34.9,29.84,WSW,248,7.0,7.0,76,0.00,,,0.21,Wunderground v.1.15,2013-02-13 21:38:00,
2013-02-13 16:44:00,42.1,34.4,29.84,SW,222,6.0,7.0,74,0.00,,,0.21,Wunderground v.1.15,2013-02-13 21:44:00,
2013-02-13 16:50:00,42.3,34.3,29.84,SW,215,5.0,11.0,73,0.00,,,0.21,Wunderground v.1.15,2013-02-13 21:50:00,
2013-02-13 16:56:00,42.2,34.5,29.84,WSW,238,5.0,11.0,74,0.00,,,0.22,Wunderground v.1.15,2013-02-13 21:56:00,
2013-02-13 17:02:00,42.2,34.2,29.85,SW,228,5.0,5.0,73,0.00,,,0.22,Wunderground v.1.15,2013-02-13 22:02:00,
2013-02-13 17:08:00,42.1,33.7,29.84,SW,217,6.0,6.0,72,0.00,,,0.22,Wunderground v.1.15,2013-02-13 22:08:00,
2013-02-13 17:14:00,42.1,34.1,29.84,SW,234,5.0,6.0,73,0.00,,,0.22,Wunderground v.1.15,2013-02-13 22:14:00,
2013-02-13 17:20:00,42.0,33.6,29.84,SW,221,5.0,9.0,72,0.00,,,0.22,Wunderground v.1.15,2013-02-13 22:20:00,
2013-02-13 17:26:00,41.9,33.9,29.84,SW,233,5.0,9.0,73,0.00,,,0.22,Wunderground v.1.15,2013-02-13 22:26:00,
2013-02-13 17:32:00,41.9,33.5,29.85,SW,234,4.0,5.0,72,0.00,,,0.22,Wunderground v.1.15,2013-02-13 22:32:00,
2013-02-13 17:38:00,41.8,33.4,29.85,SW,226,4.0,5.0,72,0.00,,,0.22,Wunderground v.1.15,2013-02-13 22:38:00,
2013-02-13 17:44:00,41.7,33.7,29.85,SSW,207,4.0,6.0,73,0.00,,,0.22,Wunderground v.1.15,2013-02-13 22:44:00,
2013-02-13 17:50:00,41.4,33.0,29.85,SW,232,4.0,4.0,72,0.00,,,0.22,Wunderground v.1.15,2013-02-13 22:50:00,
2013-02-13 17:56:00,41.1,33.1,29.86,SW,222,4.0,7.0,73,0.00,,,0.22,Wunderground v.1.15,2013-02-13 22:56:00,
2013-02-13 18:04:00,40.8,32.8,29.86,SW,223,4.0,4.0,73,0.00,,,0.22,Wunderground v.1.15,2013-02-13 23:04:00,
2013-02-13 18:10:00,40.4,32.8,29.86,WSW,246,3.0,3.0,74,0.00,,,0.22,Wunderground v.1.15,2013-02-13 23:10:00,
2013-02-13 18:16:00,40.2,32.6,29.86,SW,235,3.0,4.0,74,0.00,,,0.22,Wunderground v.1.15,2013-02-13 23:16:00,
2013-02-13 18:22:00,40.0,32.4,29.86,SW,235,2.0,3.0,74,0.00,,,0.22,Wunderground v.1.15,2013-02-13 23:22:00,
2013-02-13 18:28:00,39.7,32.8,29.86,SW,235,1.0,3.0,76,0.00,,,0.22,Wunderground v.1.15,2013-02-13 23:28:00,
2013-02-13 18:34:00,39.4,32.1,29.86,SW,235,0.0,3.0,75,0.00,,,0.22,Wunderground v.1.15,2013-02-13 23:34:00,
2013-02-13 18:40:00,39.2,31.9,29.86,SW,235,0.0,0.0,75,0.00,,,0.22,Wunderground v.1.15,2013-02-13 23:40:00,
2013-02-13 18:46:00,39.0,32.1,29.86,SW,235,0.0,1.0,76,0.00,,,0.22,Wunderground v.1.15,2013-02-13 23:46:00,
2013-02-13 18:52:00,38.9,32.0,29.87,SW,235,0.0,2.0,76,0.00,,,0.22,Wunderground v.1.15,2013-02-13 23:52:00,
2013-02-13 18:58:00,38.7,32.1,29.87,SW,234,1.0,2.0,77,0.00,,,0.22,Wunderground v.1.15,2013-02-13 23:58:00,
2013-02-13 19:04:00,38.6,32.3,29.87,SW,234,1.0,1.0,78,0.00,,,0.22,Wunderground v.1.15,2013-02-14 00:04:00,
2013-02-13 19:10:00,38.4,32.5,29.87,SW,234,1.0,1.0,79,0.00,,,0.22,Wunderground v.1.15,2013-02-14 00:10:00,
2013-02-13 19:16:00,38.3,32.7,29.88,SW,230,1.0,2.0,80,0.00,,,0.22,Wunderground v.1.15,2013-02-14 00:16:00,
2013-02-13 19:22:00,38.2,32.6,29.87,SW,230,1.0,2.0,80,0.00,,,0.22,Wunderground v.1.15,2013-02-14 00:22:00,
2013-02-13 19:28:00,38.1,32.8,29.87,SW,230,1.0,2.0,81,0.00,,,0.22,Wunderground v.1.15,2013-02-14 00:28:00,
2013-02-13 19:34:00,38.0,32.7,29.87,SW,230,1.0,2.0,81,0.00,,,0.22,Wunderground v.1.15,2013-02-14 00:34:00,
2013-02-13 19:40:00,37.9,32.9,29.87,SW,229,1.0,1.0,82,0.00,,,0.22,Wunderground v.1.15,2013-02-14 00:40:00,
2013-02-13 19:46:00,37.9,32.9,29.88,SW,229,1.0,2.0,82,0.00,,,0.22,Wunderground v.1.15,2013-02-14 00:46:00,
2013-02-13 19:52:00,37.8,32.8,29.88,SW,228,1.0,1.0,82,0.00,,,0.22,Wunderground v.1.15,2013-02-14 00:52:00,
2013-02-13 19:58:00,37.8,32.8,29.89,SW,224,1.0,2.0,82,0.00,,,0.22,Wunderground v.1.15,2013-02-14 00:58:00,
2013-02-13 20:04:00,37.7,32.7,29.89,SW,224,1.0,3.0,82,0.00,,,0.22,Wunderground v.1.15,2013-02-14 01:04:00,
2013-02-13 20:10:00,37.5,32.8,29.89,SW,224,1.0,1.0,83,0.00,,,0.22,Wunderground v.1.15,2013-02-14 01:10:00,
2013-02-13 20:16:00,37.3,32.6,29.89,SW,224,0.0,1.0,83,0.00,,,0.22,Wunderground v.1.15,2013-02-14 01:16:00,
2013-02-13 20:22:00,37.3,32.6,29.89,SW,217,1.0,4.0,83,0.00,,,0.22,Wunderground v.1.15,2013-02-14 01:22:00,
2013-02-13 20:28:00,37.3,32.6,29.89,SSW,202,3.0,5.0,83,0.00,,,0.22,Wunderground v.1.15,2013-02-14 01:28:00,
2013-02-13 20:34:00,37.2,32.5,29.89,SSW,200,2.0,3.0,83,0.00,,,0.22,Wunderground v.1.15,2013-02-14 01:34:00,
2013-02-13 20:40:00,37.2,32.8,29.89,South,176,1.0,2.0,84,0.00,,,0.22,Wunderground v.1.15,2013-02-14 01:40:00,
2013-02-13 20:46:00,37.1,32.7,29.89,South,182,2.0,2.0,84,0.00,,,0.22,Wunderground v.1.15,2013-02-14 01:46:00,
2013-02-13 20:52:00,37.0,32.6,29.89,South,175,2.0,2.0,84,0.00,,,0.22,Wunderground v.1.15,2013-02-14 01:52:00,
2013-02-13 20:58:00,36.9,32.8,29.89,South,169,3.0,4.0,85,0.00,,,0.22,Wunderground v.1.15,2013-02-14 01:58:00,
2013-02-13 21:04:00,36.8,32.7,29.89,South,182,3.0,4.0,85,0.00,,,0.22,Wunderground v.1.15,2013-02-14 02:04:00,
2013-02-13 21:10:00,36.8,33.0,29.89,SSE,156,3.0,3.0,86,0.00,,,0.22,Wunderground v.1.15,2013-02-14 02:10:00,
2013-02-13 21:16:00,36.8,33.0,29.89,South,177,4.0,5.0,86,0.00,,,0.22,Wunderground v.1.15,2013-02-14 02:16:00,
2013-02-13 21:22:00,36.7,33.2,29.89,SSW,196,3.0,5.0,87,0.00,,,0.22,Wunderground v.1.15,2013-02-14 02:22:00,
2013-02-13 21:28:00,36.6,33.1,29.89,South,175,2.0,5.0,87,0.00,,,0.22,Wunderground v.1.15,2013-02-14 02:28:00,
2013-02-13 21:34:00,36.5,33.3,29.89,SSW,203,2.0,4.0,88,0.00,,,0.22,Wunderground v.1.15,2013-02-14 02:34:00,
2013-02-13 21:40:00,36.5,33.3,29.89,South,169,2.0,2.0,88,0.00,,,0.22,Wunderground v.1.15,2013-02-14 02:40:00,
2013-02-13 21:46:00,36.5,33.3,29.90,SSW,194,3.0,3.0,88,0.00,,,0.22,Wunderground v.1.15,2013-02-14 02:46:00,
2013-02-13 21:52:00,36.5,33.6,29.90,South,191,3.0,4.0,89,0.00,,,0.22,Wunderground v.1.15,2013-02-14 02:52:00,
2013-02-13 21:58:00,36.6,33.7,29.90,SSE,166,4.0,4.0,89,0.00,,,0.22,Wunderground v.1.15,2013-02-14 02:58:00,
2013-02-13 22:04:00,36.6,33.7,29.90,SSE,156,4.0,4.0,89,0.00,,,0.22,Wunderground v.1.15,2013-02-14 03:04:00,
2013-02-13 22:10:00,36.6,33.7,29.90,South,187,4.0,4.0,89,0.00,,,0.22,Wunderground v.1.15,2013-02-14 03:10:00,
2013-02-13 22:16:00,36.7,33.8,29.90,South,186,3.0,6.0,89,0.00,,,0.22,Wunderground v.1.15,2013-02-14 03:16:00,
2013-02-13 22:22:00,36.7,33.8,29.90,SSE,157,4.0,6.0,89,0.00,,,0.22,Wunderground v.1.15,2013-02-14 03:22:00,
2013-02-13 22:28:00,36.8,33.9,29.90,SSW,195,4.0,6.0,89,0.00,,,0.22,Wunderground v.1.15,2013-02-14 03:28:00,
2013-02-13 22:34:00,36.8,33.9,29.90,SSW,209,5.0,5.0,89,0.00,,,0.22,Wunderground v.1.15,2013-02-14 03:34:00,
2013-02-13 22:40:00,36.8,33.6,29.90,South,186,4.0,6.0,88,0.00,,,0.22,Wunderground v.1.15,2013-02-14 03:40:00,
2013-02-13 22:46:00,36.8,33.6,29.90,SE,138,5.0,6.0,88,0.00,,,0.22,Wunderground v.1.15,2013-02-14 03:46:00,
2013-02-13 22:52:00,36.8,33.9,29.90,South,176,5.0,8.0,89,0.00,,,0.22,Wunderground v.1.15,2013-02-14 03:52:00,
2013-02-13 22:58:00,36.8,33.6,29.90,South,169,4.0,8.0,88,0.00,,,0.22,Wunderground v.1.15,2013-02-14 03:58:00,
2013-02-13 23:04:00,36.7,33.5,29.90,South,174,4.0,4.0,88,0.00,,,0.22,Wunderground v.1.15,2013-02-14 04:04:00,
2013-02-13 23:10:00,36.5,33.6,29.90,SSW,192,3.0,5.0,89,0.00,,,0.22,Wunderground v.1.15,2013-02-14 04:10:00,
2013-02-13 23:16:00,36.5,33.6,29.90,SSW,211,4.0,5.0,89,0.00,,,0.22,Wunderground v.1.15,2013-02-14 04:16:00,
2013-02-13 23:22:00,36.4,33.5,29.91,SSW,202,4.0,5.0,89,0.00,,,0.22,Wunderground v.1.15,2013-02-14 04:22:00,
2013-02-13 23:28:00,36.5,33.6,29.91,SSW,198,4.0,6.0,89,0.00,,,0.22,Wunderground v.1.15,2013-02-14 04:28:00,
2013-02-13 23:34:00,36.5,33.6,29.91,SSW,194,4.0,6.0,89,0.00,,,0.22,Wunderground v.1.15,2013-02-14 04:34:00,
2013-02-13 23:40:00,36.3,33.4,29.91,South,175,4.0,4.0,89,0.00,,,0.22,Wunderground v.1.15,2013-02-14 04:40:00,
2013-02-13 23:46:00,36.1,33.2,29.90,SSE,155,3.0,6.0,89,0.00,,,0.22,Wunderground v.1.15,2013-02-14 04:46:00,
2013-02-13 23:52:00,36.0,33.1,29.90,South,184,4.0,6.0,89,0.00,,,0.22,Wunderground v.1.15,2013-02-14 04:52:00,
2013-02-13 23:58:00,36.1,33.5,29.91,SW,223,5.0,6.0,90,0.00,,,0.22,Wunderground v.1.15,2013-02-14 04:58:00,